Regional Weather Roundup
Issued by NWS

Home | Current Version | Previous Version | Graphics & Text | Print | Product List | Glossary Off
Versions: 1 2 3 4 5 6 7 8 9 10 11 12 13 14 15 16 17 18 19 20 21 22 23 24 25 26 27 28 29 30 31 32 33 34 35 36 37 38 39 40 41 42 43 44 45 46 47 48 49 50

000
ASUS43 KMKX 201500
RWRWI

WISCONSIN REGIONAL WEATHER ROUNDUP
NATIONAL WEATHER SERVICE MILWAUKEE/SULLIVAN WI
1000 AM CDT FRI APR 20 2018

NOTE: "FAIR" INDICATES FEW OR NO CLOUDS BELOW 12,000 FEET WITH NO
SIGNIFICANT WEATHER AND/OR OBSTRUCTIONS TO VISIBILITY.

WIZ001-002-006>008-014>016-023>028-201600-
NORTHWEST WISCONSIN

CITY           SKY/WX    TMP DP  RH WIND       PRES   REMARKS
SUPERIOR ARPT  FAIR      46  28  50 SW6       30.47S
ASHLAND        FAIR      46  25  43 SW7       30.47R
HAYWARD        FAIR      43  27  53 SE3       30.48S
SIREN          FAIR      44  22  41 CALM      30.49S
CUMBERLAND     FAIR      34  23  64 CALM      30.49S
RICE LAKE      FAIR      37  26  64 CALM      30.51S
CHETEK         FAIR      40  26  59 CALM      30.50S
LADYSMITH      FAIR      41  27  57 CALM      30.50F
EAU CLAIRE     NOT AVBL
MENOMONIE      FAIR      41  29  64 CALM      30.51S
NEW RICHMOND   FAIR      39  23  51 CALM      30.51S
OSCEOLA        FAIR      37  26  63 CALM      30.54S
$$

WIZ003>005-009-010-017-018-201600-
NORTH CENTRAL WISCONSIN

CITY           SKY/WX    TMP DP  RH WIND       PRES   REMARKS
MANITOWISH WTR FAIR      43  20  40 CALM      30.45S
ARBOR VITAE    FAIR      45  19  34 CALM      30.45S
WOODRUFF       FAIR      45  19  34 CALM      30.45S
RHINELANDER    FAIR      45  22  40 SW5       30.47R
EAGLE RIVER    FAIR      45  15  29 CALM      30.45R
LAND O LAKES   FAIR      50  13  22 W3        30.46S
PHILLIPS       FAIR      44  25  47 CALM      30.47S
TOMAHAWK       FAIR      44  19  36 CALM      30.48S
MEDFORD        FAIR      39  22  50 CALM      30.48S
MERRILL          N/A     41  21  43 CALM      30.49S
$$

WIZ029-030-035-036-043>047-201600-
CENTRAL WISCONSIN

CITY           SKY/WX    TMP DP  RH WIND       PRES   REMARKS
WAUSAU         FAIR      42  20  41 W3        30.47S
MOSINEE        MOSUNNY   45  21  39 CALM      30.50S
MARSHFIELD     FAIR      41  21  44 W5        30.49R
STEVENS POINT  FAIR      40  20  44 CALM      30.50S
WAUPACA        FAIR      47  18  32 CALM      30.51R
WAUTOMA        FAIR      47  19  33 CALM      30.50S
WISC RAPIDS    FAIR      42  20  41 CALM      30.52R
CAMP DOUGLAS   MOSUNNY   46  23  39 NW5       30.51S
$$

WIZ011>013-019>022-031-037>040-048>050-201600-
NORTHEAST WISCONSIN

CITY           SKY/WX    TMP DP  RH WIND       PRES   REMARKS
ANTIGO         FAIR      38  17  41 CALM      30.48S
SHAWANO        FAIR      46  16  29 CALM      30.49S
OCONTO         FAIR      41  15  34 CALM      30.49S
STURGEON BAY   FAIR      46   8  21 W5        30.50R
GREEN BAY      FAIR      37  25  61 S6        30.50S WCI  32
MANITOWOC      FAIR      47  15  27 S8        30.51S
APPLETON       MOSUNNY   39  14  35 VRB3      30.48S
CLINTONVILLE   FAIR      42  18  39 CALM      30.50R
OSHKOSH        FAIR      41  22  46 CALM      30.50S
$$

WIZ032>034-041-042-053>061-201600-
SOUTHWEST WISCONSIN

CITY           SKY/WX    TMP DP  RH WIND       PRES   REMARKS
LA CROSSE      FAIR      39  28  64 CALM      30.53S
SPARTA         FAIR      37  26  64 CALM      30.53S
VIROQUA        FAIR      42  25  50 NE3       30.51S
BOSCOBEL       FAIR      44  29  55 CALM      30.53F
PRAIRIE DU CHI FAIR      38  28  67 CALM      30.54S
PLATTEVILLE    FAIR      45  32  59 CALM      30.52S
$$

WIZ056-057-062-063-064-067-068-201600-
SOUTH CENTRAL WISCONSIN

CITY           SKY/WX    TMP DP  RH WIND       PRES   REMARKS
REEDSBURG      FAIR      39  25  57 CALM      30.51S
BARABOO/DELLS  FAIR      38  24  56 S3        30.51S
LONE ROCK      NOT AVBL
MINERAL POINT  FAIR      46  28  49 CALM      30.51F
MADISON        FAIR      46  25  43 CALM      30.52R
MIDDLETON      FAIR      45  27  48 W3        30.52S
WATERTOWN      FAIR      38  24  55 CALM      30.51S
MONROE         FAIR      45  25  45 CALM      30.52R
JANESVILLE     SUNNY     48  28  46 NW5       30.52R
$$

WIZ051-052-058>065-066-070>072-201600-
SOUTHEAST WISCONSIN

CITY           SKY/WX    TMP DP  RH WIND       PRES   REMARKS
MILWAUKEE      FAIR      48  23  37 CALM      30.51R
WAUKESHA       SUNNY     43  25  49 CALM      30.52R
MILWAUKEE/TIMM SUNNY     45  18  33 CALM      30.51S
RACINE         FAIR      49  24  37 SE6       30.53R
BURLINGTON     FAIR      42  26  53 CALM      30.51R
KENOSHA        FAIR      50  28  42 VRB3      30.51R
FOND DU LAC    FAIR      39  21  48 S5        30.51R
SHEBOYGAN      FAIR      45  25  45 S7        30.51R
WEST BEND      FAIR      43  23  45 CALM      30.50S
JUNEAU         FAIR      35  22  59 CALM      30.52R
$$

LSZ147-162-201600-
LAKE SUPERIOR

STATION/POSITION TIME  TEMP    WIND        PRES    WAVE
                       AIR SEA DIR/SP/G            HT/PER
                 (UTC) (F)     (DEG/KT/KT) (MB)    (FT/S)
DEVILS ISLAND    1400   39     230/  9/ 10 1031.9R
SAXON HARBOR     1430   49     190/  5/  8 1030.8S
$$

LMZ867-665-643>646-201600-
LAKE MICHIGAN

STATION/POSITION TIME  TEMP    WIND        PRES    WAVE
                       AIR SEA DIR/SP/G            HT/PER
                 (UTC) (F)     (DEG/KT/KT) (MB)    (FT/S)
NORTHPORT PIER   1440   43                 1031.8S
KEWAUNEE LAKESHO 1430   46     220/  5/  8 1031.7R
SHEBOYGAN LAKESH 1400   43        CALM     1033.2R
PORT WASHINGTON  1440   46     100/  2/  2 1033.9S
MILWAUKEE LAKESH 1430   44      90/  2/  2   N/A
KENOSHA   LAKESH 1400   42                 1032.8
$$

TC  - TEMPERATURE IN CELSIUS
VSB - VISIBILITY IN STATUTE MILES
WCI - WIND CHILL INDEX
HX  - HEAT INDEX




USA.gov is the U.S. government's official web portal to all federal, state and local government web resources and services.